Tracking 22879 objects as of 22-Apr-2021
HD Live streaming from Space Station
objects crossing your sky now

FLOCK 3K 11

Track FLOCK 3K 11 now!
10-day predictions
FLOCK 3K 11 is classified as:


NORAD ID: 43904
Int'l Code: 2018-111AE
Perigee: 475.3 km
Apogee: 504.6 km
Inclination: 97.2 °
Period: 94.3 minutes
Semi major axis: 6860 km
RCS: Unknown
Launch date: December 27, 2018
Source: United States (US)
Launch site: VOSTOCHNY COSMODROME (VOSTO)
aabbcc
Your satellite tracking list
Your tracking list is empty




NASA's NSSDC Master Catalog

Two Line Element Set (TLE):
1 43904U 18111AE  21111.65923831  .00003335  00000-0  12529-3 0  9991
2 43904  97.2405   8.8543 0021378 127.1463 233.1734 15.27649607129059
Source of the keplerian elements: AFSPC